FW2736 Weather Reports


Display with metric or nautical units.
time (UTC)temp
F
wind
direction
speed
MPH
gust
MPH
rain 1hr
in
rain 24hr
in
rain mn
in
humidity
%
barometer
mb
20260509105910 55 280 0.0 0.0 0.00 0.00 0.00 86 1014.9
20260509105439 56 288 0.0 0.0 0.00 0.00 0.00 86 1014.9
20260509104942 55 300 0.0 0.0 0.00 0.00 0.00 86 1014.9
20260509104437 55 283 0.0 0.0 0.00 0.00 0.00 84 1015.2
20260509103912 55 294 0.0 0.0 0.00 0.00 0.00 84 1015.2
20260509103410 56 271 0.0 0.0 0.00 0.00 0.00 84 1015.2
20260509102941 56 290 0.0 0.0 0.00 0.00 0.00 84 1015.2
20260509102437 56 291 0.0 0.0 0.00 0.00 0.00 85 1015.2
20260509101913 56 289 0.0 0.0 0.00 0.00 0.00 85 1015.2
20260509101413 56 305 0.0 0.0 0.00 0.00 0.00 84 1015.2
20260509100941 56 296 0.0 0.0 0.00 0.00 0.00 84 1015.2
20260509100441 56 277 0.0 0.0 0.00 0.00 0.00 84 1015.2
20260509095941 56 285 0.0 0.0 0.00 0.00 0.00 84 1015.2
20260509095435 57 295 0.0 0.0 0.00 0.00 0.00 84 1015.2
20260509094937 56 324 0.0 0.0 0.00 0.00 0.00 83 1015.2
20260509094413 56 289 0.0 0.0 0.00 0.00 0.00 82 1015.2
20260509093939 56 292 0.0 0.0 0.00 0.00 0.00 81 1015.2
20260509093442 56 314 0.0 0.0 0.00 0.00 0.00 80 1015.2
20260509092940 57 302 0.0 0.0 0.00 0.00 0.00 80 1015.2
20260509092413 57 291 0.0 0.0 0.00 0.00 0.00 80 1015.6
20260509091939 57 300 0.0 0.0 0.00 0.00 0.00 80 1015.6
20260509091440 58 290 0.0 0.0 0.00 0.00 0.00 81 1015.6
20260509090942 58 299 0.0 0.0 0.00 0.00 0.00 81 1015.6
20260509090414 58 289 0.0 0.0 0.00 0.00 0.00 82 1015.6
20260509085941 57 287 0.0 0.0 0.00 0.00 0.00 80 1015.6
20260509085414 57 291 0.0 0.0 0.00 0.00 0.00 79 1015.6
20260509084917 57 292 0.0 0.0 0.00 0.00 0.00 79 1015.6
20260509084418 58 281 0.0 0.0 0.00 0.00 0.00 78 1015.9
20260509083915 58 288 0.0 0.0 0.00 0.00 0.00 78 1015.9
20260509083416 59 287 0.0 0.0 0.00 0.00 0.00 78 1015.9
20260509082914 59 286 0.0 0.0 0.00 0.00 0.00 79 1015.9
20260509082414 59 290 0.0 0.0 0.00 0.00 0.00 79 1015.9
20260509081916 59 305 0.0 0.0 0.00 0.00 0.00 77 1015.9
20260509081415 59 277 0.0 0.0 0.00 0.00 0.00 77 1015.9
20260509080915 59 298 0.0 0.0 0.00 0.00 0.00 76 1016.3
20260509080436 59 306 0.0 0.0 0.00 0.00 0.00 75 1016.3
20260509075914 60 292 0.0 0.0 0.00 0.00 0.00 74 1016.3
20260509075413 60 299 4.0 0.0 0.00 0.00 0.00 75 1016.3
20260509074938 60 291 0.0 0.0 0.00 0.00 0.00 75 1016.3
20260509074413 60 278 0.0 0.0 0.00 0.00 0.00 75 1016.3
20260509073915 60 308 0.0 0.0 0.00 0.00 0.00 73 1016.3
20260509073413 61 245 0.0 0.0 0.00 0.00 0.00 72 1016.3
20260509072916 61 169 0.0 0.0 0.00 0.00 0.00 71 1016.3
20260509072415 62 301 0.0 0.0 0.00 0.00 0.00 71 1016.3
20260509071913 62 302 0.0 0.0 0.00 0.00 0.00 70 1016.3
20260509071413 63 303 0.0 0.0 0.00 0.00 0.00 70 1016.3
20260509070914 63 307 0.0 0.0 0.00 0.00 0.00 69 1016.3
20260509070415 63 339 0.0 0.0 0.00 0.00 0.00 69 1016.3
20260509065914 64 264 0.0 0.0 0.00 0.00 0.00 68 1016.3
20260509065439 64 245 0.0 0.0 0.00 0.00 0.00 69 1016.3
20260509064913 64 254 0.0 0.0 0.00 0.00 0.00 68 1016.3
20260509064439 64 254 0.0 0.0 0.00 0.00 0.00 69 1016.3
20260509063914 64 255 0.0 0.0 0.00 0.00 0.00 70 1016.3
20260509063438 63 258 0.0 0.0 0.00 0.00 0.00 68 1016.3
20260509062938 64 278 0.0 0.0 0.00 0.00 0.00 68 1016.3
20260509062412 64 305 2.0 0.0 0.00 0.00 0.00 68 1016.3
20260509061912 64 315 6.0 0.0 0.00 0.00 0.00 68 1016.6
20260509061414 64 287 6.0 0.0 0.00 0.00 0.00 69 1016.3
20260509060910 64 309 0.0 0.0 0.00 0.00 0.00 67 1016.3
20260509060415 65 288 0.0 0.0 0.00 0.00 0.00 67 1016.3
20260509055914 65 278 0.0 0.0 0.00 0.00 0.00 66 1016.3
20260509055411 65 93 0.0 0.0 0.00 0.00 0.00 66 1016.3
20260509054911 65 245 0.0 0.0 0.00 0.00 0.00 67 1016.3
20260509054412 65 245 0.0 0.0 0.00 0.00 0.00 67 1016.3
20260509053912 65 305 0.0 0.0 0.00 0.00 0.00 67 1016.3
20260509053414 65 308 0.0 0.0 0.00 0.00 0.00 67 1016.3
20260509052910 65 309 0.0 0.0 0.00 0.00 0.00 65 1016.3
20260509052410 65 294 0.0 0.0 0.00 0.00 0.00 64 1016.3
20260509051911 66 281 0.0 0.0 0.00 0.00 0.00 63 1016.3
20260509051413 67 322 0.0 0.0 0.00 0.00 0.00 63 1016.3
20260509050913 67 291 0.0 0.0 0.00 0.00 0.00 63 1016.3
20260509050410 68 283 0.0 0.0 0.00 0.00 0.00 61 1016.3
20260509045911 68 337 0.0 0.0 0.00 0.00 0.00 59 1016.3
20260509045414 69 241 2.0 0.0 0.00 0.00 0.00 60 1016.3
20260509044912 68 226 4.0 0.0 0.00 0.00 0.00 60 1016.3
20260509044412 68 270 4.0 0.0 0.00 0.00 0.00 59 1016.3
20260509043913 68 248 5.0 0.0 0.00 0.00 0.00 59 1016.3
20260509043413 69 243 6.0 0.0 0.00 0.00 0.00 59 1016.3
20260509042914 69 271 7.0 0.0 0.00 0.00 0.00 58 1016.3
20260509042415 69 313 7.0 0.0 0.00 0.00 0.00 58 1016.3
20260509041912 69 198 5.0 0.0 0.00 0.00 0.00 58 1016.3
20260509041412 69 262 5.0 0.0 0.00 0.00 0.00 58 1015.9
20260509040912 69 139 5.0 0.0 0.00 0.00 0.00 58 1015.9
20260509040413 69 314 3.0 0.0 0.00 0.00 0.00 58 1015.9
20260509035912 69 310 7.0 0.0 0.00 0.00 0.00 58 1015.9
20260509035412 69 21 5.0 0.0 0.00 0.00 0.00 58 1015.6
20260509034912 69 324 3.0 0.0 0.00 0.00 0.00 58 1015.6
20260509034413 70 237 5.0 0.0 0.00 0.00 0.00 58 1015.6
20260509033915 70 159 5.0 0.0 0.00 0.00 0.00 59 1015.6
20260509033411 70 279 5.0 0.0 0.00 0.00 0.00 58 1015.6
20260509032914 71 271 3.0 0.0 0.00 0.00 0.00 58 1015.6
20260509032413 71 280 6.0 0.0 0.00 0.00 0.00 58 1015.6
20260509031928 71 53 6.0 0.0 0.00 0.00 0.00 58 1015.2
20260509031429 71 260 6.0 0.0 0.00 0.00 0.00 57 1015.2
20260509030926 72 261 5.0 0.0 0.00 0.00 0.00 57 1015.2
20260509030427 72 187 5.0 0.0 0.00 0.00 0.00 56 1015.2
20260509025926 72 125 5.0 0.0 0.00 0.00 0.00 56 1015.2
20260509025428 73 115 8.0 0.0 0.00 0.00 0.00 56 1015.2
20260509024928 73 155 7.0 0.0 0.00 0.00 0.00 55 1015.2
20260509024428 74 108 9.0 0.0 0.00 0.00 0.00 54 1014.9
20260509023925 74 119 9.0 0.0 0.00 0.00 0.00 54 1014.9
20260509023428 75 107 9.0 0.0 0.00 0.00 0.00 53 1014.9
20260509022927 76 103 9.0 0.0 0.00 0.00 0.00 52 1014.9
20260509022427 77 201 10.0 0.0 0.00 0.00 0.00 50 1014.6
20260509021924 78 152 6.0 0.0 0.00 0.00 0.00 48 1014.6
20260509021426 79 160 6.0 0.0 0.00 0.00 0.00 47 1014.6
20260509020927 79 76 4.0 0.0 0.00 0.00 0.00 45 1014.2
20260509020424 80 355 8.0 0.0 0.00 0.00 0.00 44 1014.2
20260509015924 80 90 8.0 0.0 0.00 0.00 0.00 44 1014.2
20260509015423 80 328 8.0 0.0 0.00 0.00 0.00 44 1014.2
20260509014926 81 342 4.0 0.0 0.00 0.00 0.00 42 1014.2
20260509014425 81 304 5.0 0.0 0.00 0.00 0.00 42 1013.9
20260509013923 81 265 8.0 0.0 0.00 0.00 0.00 42 1013.9
20260509013427 82 301 8.0 0.0 0.00 0.00 0.00 42 1013.9
20260509012924 82 297 7.0 0.0 0.00 0.00 0.00 41 1013.9
20260509012425 83 340 6.0 0.0 0.00 0.00 0.00 41 1013.9
20260509011925 83 33 7.0 0.0 0.00 0.00 0.00 40 1013.9
20260509011424 84 257 8.0 0.0 0.00 0.00 0.00 40 1013.9
20260509010923 85 191 11.0 0.0 0.00 0.00 0.00 39 1013.9
20260509010423 86 265 7.0 0.0 0.00 0.00 0.00 38 1013.9
20260509005925 86 2 7.0 0.0 0.00 0.00 0.00 38 1013.9
20260509005423 87 342 7.0 0.0 0.00 0.00 0.00 37 1013.9
20260509004923 87 354 7.0 0.0 0.00 0.00 0.00 36 1013.9
20260509004422 87 324 7.0 0.0 0.00 0.00 0.00 35 1013.9
20260509003923 88 338 5.0 0.0 0.00 0.00 0.00 35 1013.9
20260509003424 87 253 10.0 0.0 0.00 0.00 0.00 35 1013.9
20260509002923 88 318 10.0 0.0 0.00 0.00 0.00 34 1013.9
20260509002423 88 284 8.0 0.0 0.00 0.00 0.00 33 1013.9
20260509001923 89 349 8.0 0.0 0.00 0.00 0.00 32 1013.9
20260509001423 89 352 9.0 0.0 0.00 0.00 0.00 32 1013.9
20260509000922 89 314 9.0 0.0 0.00 0.00 0.00 32 1013.9
20260509000425 90 340 9.0 0.0 0.00 0.00 0.00 31 1013.9
20260508235926 89 236 10.0 0.0 0.00 0.00 0.00 31 1013.9
20260508235423 89 319 14.0 0.0 0.00 0.00 0.00 31 1013.9
20260508234921 90 4 11.0 0.0 0.00 0.00 0.00 30 1013.9
20260508234421 90 297 12.0 0.0 0.00 0.00 0.00 28 1013.9
20260508233920 90 314 15.0 0.0 0.00 0.00 0.00 28 1013.9
20260508233420 90 315 15.0 0.0 0.00 0.00 0.00 28 1013.9
20260508232919 90 300 12.0 0.0 0.00 0.00 0.00 28 1013.9
20260508232420 91 310 12.0 0.0 0.00 0.00 0.00 27 1013.9
20260508231921 92 328 9.0 0.0 0.00 0.00 0.00 28 1013.9
20260508231419 91 25 14.0 0.0 0.00 0.00 0.00 28 1013.9
20260508230920 90 288 15.0 0.0 0.00 0.00 0.00 29 1013.9
20260508230419 90 332 15.0 0.0 0.00 0.00 0.00 29 1013.9
20260508225921 91 294 10.0 0.0 0.00 0.00 0.00 28 1013.9
20260508225418 91 315 12.0 0.0 0.00 0.00 0.00 30 1013.9
20260508224918 91 331 13.0 0.0 0.00 0.00 0.00 30 1014.2
20260508224418 91 328 15.0 0.0 0.00 0.00 0.00 30 1014.2
20260508223917 91 326 15.0 0.0 0.00 0.00 0.00 30 1014.2
20260508223416 91 314 12.0 0.0 0.00 0.00 0.00 29 1014.2
20260508222916 92 349 13.0 0.0 0.00 0.00 0.00 29 1014.2
20260508222418 92 0 10.0 0.0 0.00 0.00 0.00 29 1014.2
20260508221917 92 345 11.0 0.0 0.00 0.00 0.00 29 1014.2
20260508221418 92 345 15.0 0.0 0.00 0.00 0.00 28 1014.2
20260508220842 92 312 15.0 0.0 0.00 0.00 0.00 28 1014.6
20260508220417 92 319 9.0 0.0 0.00 0.00 0.00 29 1014.6
20260508215916 92 343 13.0 0.0 0.00 0.00 0.00 30 1014.6
20260508215416 92 306 12.0 0.0 0.00 0.00 0.00 30 1014.6
20260508214917 93 29 10.0 0.0 0.00 0.00 0.00 29 1014.6
20260508214417 92 311 13.0 0.0 0.00 0.00 0.00 30 1014.6
20260508213917 92 299 12.0 0.0 0.00 0.00 0.00 30 1014.9
20260508213416 92 317 12.0 0.0 0.00 0.00 0.00 29 1014.9
20260508212915 94 87 9.0 0.0 0.00 0.00 0.00 28 1014.9
20260508212416 93 303 10.0 0.0 0.00 0.00 0.00 28 1014.9
20260508211915 91 334 10.0 0.0 0.00 0.00 0.00 29 1014.9
20260508211343 91 20 13.0 0.0 0.00 0.00 0.00 29 1014.9
20260508210915 92 9 11.0 0.0 0.00 0.00 0.00 29 1014.9
20260508210415 92 288 7.0 0.0 0.00 0.00 0.00 28 1015.2
20260508205916 93 340 7.0 0.0 0.00 0.00 0.00 27 1015.2
20260508205416 92 335 8.0 0.0 0.00 0.00 0.00 29 1015.2
20260508204913 90 137 10.0 0.0 0.00 0.00 0.00 30 1015.6
20260508204418 90 82 10.0 0.0 0.00 0.00 0.00 31 1015.6
20260508203914 91 45 7.0 0.0 0.00 0.00 0.00 30 1015.6
20260508203415 91 191 7.0 0.0 0.00 0.00 0.00 30 1015.6
20260508202913 91 72 7.0 0.0 0.00 0.00 0.00 29 1015.6
20260508202414 91 139 4.0 0.0 0.00 0.00 0.00 30 1015.9
20260508201913 91 311 4.0 0.0 0.00 0.00 0.00 30 1015.9
20260508201413 90 343 7.0 0.0 0.00 0.00 0.00 32 1015.9
20260508200915 89 327 6.0 0.0 0.00 0.00 0.00 34 1015.9
20260508200414 89 89 7.0 0.0 0.00 0.00 0.00 35 1015.9
20260508195916 89 158 7.0 0.0 0.00 0.00 0.00 35 1016.3
20260508195411 89 123 6.0 0.0 0.00 0.00 0.00 35 1016.3
20260508194913 89 190 5.0 0.0 0.00 0.00 0.00 37 1016.3
20260508194414 88 325 6.0 0.0 0.00 0.00 0.00 39 1016.3
20260508193912 87 72 7.0 0.0 0.00 0.00 0.00 39 1016.6
20260508193412 86 17 7.0 0.0 0.00 0.00 0.00 41 1016.6
20260508192912 87 14 6.0 0.0 0.00 0.00 0.00 40 1016.6
20260508192411 86 51 5.0 0.0 0.00 0.00 0.00 40 1016.6
20260508191913 86 75 5.0 0.0 0.00 0.00 0.00 41 1016.9
20260508191413 86 111 5.0 0.0 0.00 0.00 0.00 42 1016.9
20260508190915 85 352 6.0 0.0 0.00 0.00 0.00 42 1016.9
20260508190411 85 345 5.0 0.0 0.00 0.00 0.00 42 1016.9
20260508185912 85 82 5.0 0.0 0.00 0.00 0.00 42 1016.9
20260508185414 85 110 7.0 0.0 0.00 0.00 0.00 42 1016.9
20260508184911 84 55 7.0 0.0 0.00 0.00 0.00 42 1016.9
20260508184412 84 92 7.0 0.0 0.00 0.00 0.00 43 1016.9
20260508183912 84 224 5.0 0.0 0.00 0.00 0.00 44 1017.3
20260508183412 82 16 5.0 0.0 0.00 0.00 0.00 45 1017.3
20260508182914 81 62 6.0 0.0 0.00 0.00 0.00 45 1017.3
20260508182412 82 49 4.0 0.0 0.00 0.00 0.00 45 1017.3
20260508181914 82 136 6.0 0.0 0.00 0.00 0.00 45 1017.3
20260508181412 81 248 6.0 0.0 0.00 0.00 0.00 46 1017.3
20260508180916 81 115 6.0 0.0 0.00 0.00 0.00 48 1017.3
20260508180412 79 154 5.0 0.0 0.00 0.00 0.00 50 1017.3
20260508175911 79 82 6.0 0.0 0.00 0.00 0.00 50 1017.3
20260508175413 78 30 6.0 0.0 0.00 0.00 0.00 52 1017.3
20260508174914 77 110 5.0 0.0 0.00 0.00 0.00 54 1017.6
20260508174411 76 359 6.0 0.0 0.00 0.00 0.00 56 1017.6
20260508173913 75 114 7.0 0.0 0.00 0.00 0.00 58 1017.6
20260508173412 74 100 7.0 0.0 0.00 0.00 0.00 60 1017.6
20260508172923 73 92 7.0 0.0 0.00 0.00 0.00 61 1017.6
20260508172424 72 117 7.0 0.0 0.00 0.00 0.00 63 1017.6
20260508171921 71 48 6.0 0.0 0.00 0.00 0.00 64 1017.6
20260508171420 71 55 5.0 0.0 0.00 0.00 0.00 66 1017.6
20260508170921 70 14 6.0 0.0 0.00 0.00 0.00 67 1017.6
20260508170420 69 71 6.0 0.0 0.00 0.00 0.00 69 1017.6
20260508165920 68 104 6.0 0.0 0.00 0.00 0.00 71 1017.6
20260508165419 68 131 5.0 0.0 0.00 0.00 0.00 72 1017.6
20260508164922 68 284 5.0 0.0 0.00 0.00 0.00 73 1017.9
20260508164419 67 107 4.0 0.0 0.00 0.00 0.00 74 1017.9
20260508163919 66 107 4.0 0.0 0.00 0.00 0.00 75 1018.3
20260508163419 66 25 4.0 0.0 0.00 0.00 0.00 76 1018.3
20260508162920 66 178 0.0 0.0 0.00 0.00 0.00 77 1018.3
20260508162419 64 309 0.0 0.0 0.00 0.00 0.00 82 1018.3
20260508161918 63 120 0.0 0.0 0.00 0.00 0.00 86 1018.3
20260508161419 61 120 0.0 0.0 0.00 0.00 0.00 88 1018.3
20260508160920 60 111 4.0 0.0 0.00 0.00 0.00 90 1018.3
20260508160419 59 108 0.0 0.0 0.00 0.00 0.00 91 1018.3
20260508155920 59 109 1.0 0.0 0.00 0.00 0.00 92 1018.3
20260508155417 58 94 0.0 0.0 0.00 0.00 0.00 92 1018.3
20260508154916 58 317 0.0 0.0 0.00 0.00 0.00 93 1018.3
20260508154417 58 332 0.0 0.0 0.00 0.00 0.00 93 1018.3
20260508153917 58 47 0.0 0.0 0.00 0.00 0.00 94 1018.3
20260508153420 57 102 0.0 0.0 0.00 0.00 0.00 94 1018.3
20260508152920 57 53 0.0 0.0 0.00 0.00 0.00 94 1018.3
20260508152416 57 284 0.0 0.0 0.00 0.00 0.00 94 1018.3
20260508151916 56 110 0.0 0.0 0.00 0.00 0.00 95 1018.3
20260508151417 56 94 0.0 0.0 0.00 0.00 0.00 94 1018.3
20260508150916 56 179 3.0 0.0 0.00 0.00 0.00 95 1018.3
20260508150416 56 163 0.0 0.0 0.00 0.00 0.00 95 1018.6
20260508145915 56 115 0.0 0.0 0.00 0.00 0.00 95 1018.6
20260508145416 56 24 0.0 0.0 0.00 0.00 0.00 95 1018.3
20260508144915 55 279 0.0 0.0 0.00 0.00 0.00 95 1018.6
20260508144416 55 205 0.0 0.0 0.00 0.00 0.00 95 1018.6
20260508143914 55 292 0.0 0.0 0.00 0.00 0.00 95 1018.6
20260508143417 55 128 0.0 0.0 0.00 0.00 0.00 95 1018.6
20260508142914 55 152 0.0 0.0 0.00 0.00 0.00 95 1018.6
20260508142415 55 305 0.0 0.0 0.00 0.00 0.00 95 1018.6
20260508141913 55 286 0.0 0.0 0.00 0.00 0.00 95 1018.6
20260508141338 55 297 0.0 0.0 0.00 0.00 0.00 95 1018.6
20260508140915 54 300 0.0 0.0 0.00 0.00 0.00 95 1018.6
20260508140414 54 293 0.0 0.0 0.00 0.00 0.00 95 1018.6
20260508135915 54 313 0.0 0.0 0.00 0.00 0.00 95 1018.6
20260508135414 54 310 0.0 0.0 0.00 0.00 0.00 95 1018.6
20260508134913 54 285 0.0 0.0 0.00 0.00 0.00 95 1018.6
20260508134414 53 302 0.0 0.0 0.00 0.00 0.00 95 1018.3
20260508133913 53 304 0.0 0.0 0.00 0.00 0.00 95 1018.3
20260508133412 53 321 0.0 0.0 0.00 0.00 0.00 95 1018.3
20260508132913 53 347 0.0 0.0 0.00 0.00 0.00 95 1018.3
20260508132414 53 331 0.0 0.0 0.00 0.00 0.00 94 1018.3
20260508131915 53 325 0.0 0.0 0.00 0.00 0.00 94 1018.3
20260508131416 53 322 0.0 0.0 0.00 0.00 0.00 94 1018.3
20260508130912 53 294 0.0 0.0 0.00 0.00 0.00 94 1018.3
20260508130412 53 359 0.0 0.0 0.00 0.00 0.00 94 1018.3
20260508125915 53 313 3.0 0.0 0.00 0.00 0.00 94 1018.3
20260508125414 53 10 0.0 0.0 0.00 0.00 0.00 94 1017.9
20260508124915 53 348 0.0 0.0 0.00 0.00 0.00 94 1017.9
20260508124415 53 298 0.0 0.0 0.00 0.00 0.00 94 1017.9
20260508123915 53 330 0.0 0.0 0.00 0.00 0.00 94 1017.6
20260508123415 53 293 0.0 0.0 0.00 0.00 0.00 93 1017.6
20260508122915 53 341 0.0 0.0 0.00 0.00 0.00 93 1017.6
20260508122413 52 314 4.0 0.0 0.00 0.00 0.00 93 1017.6
20260508121912 52 323 4.0 0.0 0.00 0.00 0.00 93 1017.6
20260508121341 52 356 0.0 0.0 0.00 0.00 0.00 92 1017.6
20260508120912 52 299 0.0 0.0 0.00 0.00 0.00 92 1017.6
20260508120412 52 294 0.0 0.0 0.00 0.00 0.00 92 1017.3
20260508115912 52 312 0.0 0.0 0.00 0.00 0.00 92 1017.3
20260508115412 53 238 0.0 0.0 0.00 0.00 0.00 92 1017.3
20260508114913 53 295 3.0 0.0 0.00 0.00 0.00 92 1017.3
20260508114413 53 315 3.0 0.0 0.00 0.00 0.00 92 1017.3
20260508113914 53 233 4.0 0.0 0.00 0.00 0.00 92 1017.3
20260508113411 53 309 0.0 0.0 0.00 0.00 0.00 91 1017.3
20260508112912 53 298 0.0 0.0 0.00 0.00 0.00 91 1017.3
20260508112412 53 229 0.0 0.0 0.00 0.00 0.00 91 1017.3
20260508111911 53 158 0.0 0.0 0.00 0.00 0.00 91 1017.3
20260508111415 53 150 0.0 0.0 0.00 0.00 0.00 91 1017.3
20260508110913 53 252 0.0 0.0 0.00 0.00 0.00 90 1017.3
20260508110349 52 2 0.0 0.0 0.00 0.00 0.00 89 1017.3